| time (UTC) | temp F | wind direction | speed knots | gust knots | rain 1hr in | rain 24hr in | rain mn in | humidity % | barometer mb |
| 20260506233550 | 69 | 276 | 4.3 | 2.6 | 0.00 | 0.00 | 0.00 | ||
| 20260506232050 | 72 | 278 | 4.3 | 2.6 | 0.00 | 0.00 | 0.00 | ||
| 20260506230551 | 73 | 249 | 6.1 | 9.6 | 0.00 | 0.00 | 0.00 | ||
| 20260506225051 | 71 | 262 | 7.8 | 7.0 | 0.00 | 0.00 | 0.00 | ||
| 20260506223552 | 71 | 278 | 2.6 | 8.7 | 0.00 | 0.00 | 0.00 | ||
| 20260506222052 | 71 | 253 | 4.3 | 5.2 | 0.00 | 0.00 | 0.00 | ||
| 20260506215054 | 70 | 212 | 8.7 | 7.0 | 0.00 | 0.00 | 0.00 | ||
| 20260506213554 | 71 | 225 | 4.3 | 5.2 | 0.00 | 0.00 | 0.00 | ||
| 20260506212055 | 68 | 262 | 6.1 | 5.2 | 0.00 | 0.00 | 0.00 | ||
| 20260506210556 | 70 | 245 | 5.2 | 11.3 | 0.00 | 0.00 | 0.00 | ||
| 20260506205056 | 67 | 257 | 2.6 | 2.6 | 0.00 | 0.00 | 0.00 | ||
| 20260506203557 | 68 | 305 | 1.7 | 3.5 | 0.00 | 0.00 | 0.00 | ||
| 20260506202058 | 68 | 238 | 1.7 | 4.3 | 0.00 | 0.00 | 0.00 | ||
| 20260506200558 | 68 | 225 | 5.2 | 7.0 | 0.00 | 0.00 | 0.00 | ||
| 20260506195059 | 66 | 217 | 5.2 | 3.5 | 0.00 | 0.00 | 0.00 | ||
| 20260506192100 | 64 | 281 | 4.3 | 4.3 | 0.00 | 0.00 | 0.00 | ||
| 20260506190601 | 66 | 253 | 1.7 | 6.1 | 0.00 | 0.00 | 0.00 | ||
| 20260506185102 | 63 | 183 | 6.1 | 0.9 | 0.00 | 0.00 | 0.00 | ||
| 20260506183603 | 63 | 238 | 3.5 | 5.2 | 0.00 | 0.00 | 0.00 | ||
| 20260506180604 | 62 | 257 | 5.2 | 2.6 | 0.00 | 0.00 | 0.00 | ||
| 20260506175105 | 62 | 200 | 5.2 | 1.7 | 0.00 | 0.00 | 0.00 | ||
| 20260506173606 | 60 | 259 | 2.6 | 0.0 | 0.00 | 0.00 | 0.00 | ||
| 20260506172106 | 60 | 242 | 6.1 | 4.3 | 0.00 | 0.00 | 0.00 | ||
| 20260506170607 | 60 | 252 | 4.3 | 5.2 | 0.00 | 0.00 | 0.00 | ||
| 20260506165108 | 58 | 242 | 3.5 | 5.2 | 0.00 | 0.00 | 0.00 | ||
| 20260506163609 | 57 | 218 | 4.3 | 2.6 | 0.00 | 0.00 | 0.00 | ||
| 20260506162110 | 59 | 285 | 3.5 | 6.1 | 0.00 | 0.00 | 0.00 | ||
| 20260506160611 | 57 | 278 | 4.3 | 5.2 | 0.00 | 0.00 | 0.00 | ||
| 20260506155112 | 57 | 287 | 3.5 | 2.6 | 0.00 | 0.00 | 0.00 | ||
| 20260506153614 | 54 | 243 | 1.7 | 1.7 | 0.00 | 0.00 | 0.00 | ||
| 20260506152115 | 55 | 287 | 4.3 | 4.3 | 0.00 | 0.00 | 0.00 | ||
| 20260506150616 | 55 | 323 | 4.3 | 2.6 | 0.00 | 0.00 | 0.00 | ||
| 20260506145117 | 57 | 312 | 0.0 | 0.9 | 0.00 | 0.00 | 0.00 | ||
| 20260506143618 | 57 | 174 | 0.0 | 0.0 | 0.00 | 0.00 | 0.00 | ||
| 20260506142120 | 54 | 174 | 0.0 | 0.0 | 0.00 | 0.00 | 0.00 | ||
| 20260506140621 | 48 | 174 | 0.0 | 0.0 | 0.00 | 0.00 | 0.00 | ||
| 20260506135123 | 41 | 174 | 0.0 | 0.0 | 0.00 | 0.00 | 0.00 | ||
| 20260506133624 | 40 | 174 | 0.0 | 0.0 | 0.00 | 0.00 | 0.00 | ||
| 20260506130626 | 40 | 174 | 0.0 | 0.0 | 0.00 | 0.00 | 0.00 | ||
| 20260506125128 | 41 | 174 | 0.0 | 0.0 | 0.00 | 0.00 | 0.00 | ||
| 20260506123629 | 42 | 174 | 0.0 | 0.0 | 0.00 | 0.00 | 0.00 | ||
| 20260506122131 | 39 | 174 | 0.0 | 0.0 | 0.00 | 0.00 | 0.00 | ||
| 20260506120632 | 38 | 174 | 0.0 | 0.0 | 0.00 | 0.00 | 0.00 | ||
| 20260506115133 | 39 | 174 | 0.0 | 0.0 | 0.00 | 0.00 | 0.00 | ||
| 20260506113634 | 39 | 174 | 0.0 | 0.0 | 0.00 | 0.00 | 0.00 | ||
| 20260506112135 | 38 | 174 | 0.0 | 0.0 | 0.00 | 0.00 | 0.00 | ||
| 20260506105137 | 40 | 174 | 0.0 | 0.0 | 0.00 | 0.00 | 0.00 | ||
| 20260506102140 | 41 | 174 | 0.0 | 0.0 | 0.00 | 0.00 | 0.00 | ||
| 20260506100641 | 39 | 174 | 0.0 | 0.0 | 0.00 | 0.00 | 0.00 | ||
| 20260506095142 | 41 | 174 | 0.0 | 0.0 | 0.00 | 0.00 | 0.00 | ||
| 20260506093643 | 43 | 174 | 0.0 | 0.0 | 0.00 | 0.00 | 0.00 | ||
| 20260506092145 | 45 | 174 | 0.0 | 0.0 | 0.00 | 0.00 | 0.00 | ||
| 20260506090646 | 47 | 174 | 0.0 | 0.0 | 0.00 | 0.00 | 0.00 | ||
| 20260506085147 | 47 | 174 | 0.0 | 0.0 | 0.00 | 0.00 | 0.00 | ||
| 20260506083648 | 48 | 215 | 0.0 | 0.0 | 0.00 | 0.00 | 0.00 | ||
| 20260506082149 | 48 | 193 | 0.0 | 0.0 | 0.00 | 0.00 | 0.00 | ||
| 20260506080650 | 48 | 193 | 0.0 | 0.0 | 0.00 | 0.00 | 0.00 | ||
| 20260506072153 | 49 | 193 | 0.0 | 0.0 | 0.00 | 0.00 | 0.00 | ||
| 20260506070655 | 49 | 198 | 0.9 | 0.0 | 0.00 | 0.00 | 0.00 | ||
| 20260506062158 | 50 | 169 | 1.7 | 1.7 | 0.00 | 0.00 | 0.00 | ||
| 20260506060700 | 50 | 184 | 3.5 | 1.7 | 0.00 | 0.00 | 0.00 | ||
| 20260506050705 | 50 | 179 | 0.0 | 0.0 | 0.00 | 0.00 | 0.00 | ||
| 20260506043708 | 51 | 207 | 0.9 | 0.0 | 0.00 | 0.00 | 0.00 | ||
| 20260506042208 | 50 | 193 | 0.0 | 0.0 | 0.00 | 0.00 | 0.00 | ||
| 20260506040709 | 51 | 193 | 0.0 | 0.0 | 0.00 | 0.00 | 0.00 | ||
| 20260506035211 | 49 | 166 | 0.0 | 0.0 | 0.00 | 0.00 | 0.00 | ||
| 20260506033712 | 49 | 203 | 0.9 | 0.0 | 0.00 | 0.00 | 0.00 | ||
| 20260506032213 | 50 | 193 | 0.0 | 0.0 | 0.00 | 0.00 | 0.00 | ||
| 20260506030714 | 52 | 257 | 0.9 | 0.0 | 0.00 | 0.00 | 0.00 | ||
| 20260506023716 | 54 | 214 | 0.0 | 0.0 | 0.00 | 0.00 | 0.00 | ||
| 20260506022217 | 54 | 224 | 1.7 | 0.9 | 0.00 | 0.00 | 0.00 | ||
| 20260506020718 | 53 | 214 | 1.7 | 1.7 | 0.00 | 0.00 | 0.00 | ||
| 20260506015219 | 53 | 249 | 4.3 | 3.5 | 0.00 | 0.00 | 0.00 | ||
| 20260506013720 | 52 | 252 | 2.6 | 3.5 | 0.00 | 0.00 | 0.00 | ||
| 20260506005222 | 65 | 167 | 4.3 | 2.6 | 0.00 | 0.00 | 0.00 | ||
| 20260506002224 | 63 | 262 | 12.2 | 13.9 | 0.00 | 0.00 | 0.00 | ||
| 20260506000725 | 64 | 252 | 7.0 | 9.6 | 0.00 | 0.00 | 0.00 | ||
| 20260505235226 | 66 | 280 | 7.8 | 9.6 | 0.00 | 0.00 | 0.00 |